TimeEDT,TemperatureF,Dew PointF,Humidity,Sea Level PressureIn,VisibilityMPH,Wind Direction,Wind SpeedMPH,Gust SpeedMPH,PrecipitationIn,Events,Conditions,WindDirDegrees,DateUTC
12:15 AM,44.6,41.0,87,29.77,10.0,NNE,4.6,-,N/A,Rain,Light Rain,30,2013-04-13 04:15:00
12:35 AM,44.6,41.0,87,29.75,10.0,NE,5.8,-,N/A,Rain,Rain,40,2013-04-13 04:35:00
12:55 AM,44.6,41.0,87,29.77,10.0,NNE,4.6,-,N/A,,Overcast,20,2013-04-13 04:55:00
1:15 AM,44.6,41.0,87,29.78,10.0,NE,3.5,-,N/A,,Overcast,40,2013-04-13 05:15:00
1:35 AM,44.6,41.0,87,29.79,10.0,NNE,3.5,-,N/A,,Overcast,20,2013-04-13 05:35:00
1:55 AM,44.6,41.0,87,29.77,10.0,NNE,4.6,-,N/A,,Overcast,20,2013-04-13 05:55:00
2:15 AM,44.6,41.0,87,29.80,10.0,NNW,3.5,-,N/A,,Overcast,340,2013-04-13 06:15:00
2:35 AM,44.6,41.0,87,29.80,10.0,NNW,8.1,-,0.01,,Overcast,340,2013-04-13 06:35:00
2:55 AM,44.6,41.0,87,29.81,10.0,NNW,6.9,-,N/A,,Overcast,340,2013-04-13 06:55:00
3:15 AM,44.6,39.2,81,29.81,10.0,North,5.8,-,N/A,,Overcast,350,2013-04-13 07:15:00
3:35 AM,44.6,39.2,81,29.82,10.0,North,3.5,-,N/A,,Overcast,10,2013-04-13 07:35:00
3:55 AM,44.6,39.2,81,29.82,10.0,NNE,4.6,-,N/A,,Overcast,30,2013-04-13 07:55:00
4:15 AM,42.8,37.4,81,29.82,10.0,Calm,Calm,-,N/A,,Scattered Clouds,0,2013-04-13 08:15:00
4:35 AM,42.8,39.2,87,29.83,10.0,Calm,Calm,-,N/A,,Clear,0,2013-04-13 08:35:00
4:55 AM,41.0,37.4,87,29.83,10.0,Calm,Calm,-,N/A,,Scattered Clouds,0,2013-04-13 08:55:00
5:15 AM,39.2,37.4,93,29.83,7.0,Calm,Calm,-,N/A,,Mostly Cloudy,0,2013-04-13 09:15:00
5:35 AM,39.2,37.4,93,29.84,10.0,Calm,Calm,-,N/A,,Scattered Clouds,0,2013-04-13 09:35:00
5:55 AM,37.4,35.6,93,29.84,5.0,Calm,Calm,-,N/A,,Scattered Clouds,0,2013-04-13 09:55:00
6:15 AM,37.4,35.6,93,29.85,1.8,Calm,Calm,-,N/A,,Mist,0,2013-04-13 10:15:00
6:35 AM,37.4,35.6,93,29.85,0.5,Calm,Calm,-,N/A,Fog,Fog,0,2013-04-13 10:35:00
6:45 AM,35.6,35.6,100,29.86,10.0,Calm,Calm,-,N/A,,Mostly Cloudy,0,2013-04-13 10:45:00
7:45 AM,42.8,41.0,93,29.88,10.0,Calm,Calm,-,N/A,,Partly Cloudy,0,2013-04-13 11:45:00
8:45 AM,44.6,39.2,81,29.89,10.0,Calm,Calm,-,N/A,,Mostly Cloudy,0,2013-04-13 12:45:00
9:45 AM,46.4,41.0,81,29.90,10.0,Calm,Calm,-,N/A,,Mostly Cloudy,0,2013-04-13 13:45:00
10:45 AM,50.0,37.4,62,29.91,10.0,North,3.5,-,N/A,,Mostly Cloudy,350,2013-04-13 14:45:00
11:45 AM,50.0,35.6,58,29.91,10.0,NNW,9.2,-,N/A,,Mostly Cloudy,340,2013-04-13 15:45:00
1:45 PM,55.4,33.8,44,29.87,10.0,WSW,10.4,21.9,N/A,,Mostly Cloudy,250,2013-04-13 17:45:00
2:45 PM,57.2,33.8,41,29.86,10.0,West,6.9,15.0,N/A,,Mostly Cloudy,280,2013-04-13 18:45:00
3:45 PM,57.2,32.0,38,29.87,10.0,West,10.4,19.6,N/A,,Mostly Cloudy,260,2013-04-13 19:45:00
4:45 PM,57.2,32.0,38,29.87,20.0,West,12.7,18.4,N/A,,Mostly Cloudy,260,2013-04-13 20:45:00
5:45 PM,57.2,32.0,38,29.86,10.0,NW,6.9,12.7,N/A,,Scattered Clouds,310,2013-04-13 21:45:00
6:45 PM,55.4,32.0,41,29.90,10.0,WNW,9.2,-,N/A,,Scattered Clouds,290,2013-04-13 22:45:00
7:45 PM,53.6,30.2,41,29.91,10.0,Calm,Calm,-,N/A,,Partly Cloudy,0,2013-04-13 23:45:00
8:45 PM,44.6,35.6,71,29.93,7.0,Calm,Calm,-,N/A,,Scattered Clouds,0,2013-04-14 00:45:00
9:45 PM,42.8,35.6,76,29.96,10.0,Calm,Calm,-,N/A,,Scattered Clouds,0,2013-04-14 01:45:00
10:55 PM,48.2,39.2,71,29.97,10.0,Calm,Calm,-,N/A,,Overcast,0,2013-04-14 02:55:00
11:15 PM,48.2,39.2,71,29.97,10.0,Calm,Calm,-,N/A,,Overcast,0,2013-04-14 03:15:00
11:35 PM,48.2,37.4,66,29.97,10.0,Calm,Calm,-,N/A,,Overcast,0,2013-04-14 03:35:00
11:55 PM,48.2,39.2,71,29.97,10.0,Calm,Calm,-,N/A,,Drizzle,0,2013-04-14 03:55:00